• In Hungary
  • List of Countries
  • For 7 days
  • Water Temperature
  • Satellite Maps
  • Weather Map
  • News
  • Weather Widgets
  • user-avatar
    Login

    Hourly Weather Dobrich

    Today, 17 August, Friday

    Time Temperature Precipitation Wind Pressure Humidity
    00:00 +23°C° 0 mm 2 mps 737 mmHg 55%
    01:00 +21°C° 0 mm 3 mps 737 mmHg 56%
    02:00 +21°C° 0 mm 3 mps 737 mmHg 57%
    03:00 +21°C° 0 mm 3 mps 737 mmHg 59%
    04:00 +20°C° 0 mm 3 mps 737 mmHg 61%
    05:00 +20°C° 0 mm 3 mps 737 mmHg 63%
    06:00 +22°C° 0 mm 4 mps 737 mmHg 60%
    07:00 +23°C° 0 mm 4 mps 737 mmHg 57%
    08:00 +26°C° 0 mm 5 mps 737 mmHg 54%
    09:00 +28°C° 0 mm 5 mps 738 mmHg 48%
    10:00 +30°C° 0 mm 5 mps 738 mmHg 41%
    11:00 +33°C° 0 mm 6 mps 738 mmHg 34%
    12:00 +34°C° 0 mm 6 mps 738 mmHg 32%
    13:00 +34°C° 0 mm 6 mps 738 mmHg 30%
    14:00 +34°C° 0 mm 6 mps 738 mmHg 30%
    15:00 +34°C° 0 mm 6 mps 737 mmHg 31%
    16:00 +34°C° 0 mm 5 mps 737 mmHg 32%
    17:00 +33°C° 0 mm 5 mps 737 mmHg 33%
    18:00 +30°C° 0 mm 4 mps 737 mmHg 39%
    19:00 +28°C° 0 mm 3 mps 737 mmHg 45%
    20:00 +25°C° 0 mm 2 mps 737 mmHg 52%
    21:00 +25°C° 0 mm 2 mps 737 mmHg 53%
    22:00 +24°C° 0 mm 2 mps 737 mmHg 54%
    23:00 +24°C° 0 mm 2 mps 737 mmHg 55%

    Tomorrow, 18 August, Saturday

    Time Temperature Precipitation Wind Pressure Humidity
    00:00 +23°C° 0 mm 2 mps 737 mmHg 55%
    01:00 +22°C° 0 mm 3 mps 737 mmHg 54%
    02:00 +22°C° 0 mm 3 mps 737 mmHg 54%
    03:00 +21°C° 0 mm 3 mps 737 mmHg 56%
    04:00 +21°C° 0 mm 3 mps 737 mmHg 58%
    05:00 +20°C° 0 mm 3 mps 737 mmHg 60%
    06:00 +22°C° 0 mm 4 mps 738 mmHg 57%
    07:00 +25°C° 0 mm 4 mps 738 mmHg 53%
    08:00 +27°C° 0 mm 5 mps 738 mmHg 50%
    09:00 +29°C° 0 mm 5 mps 738 mmHg 44%
    10:00 +32°C° 0 mm 6 mps 739 mmHg 38%
    11:00 +34°C° 0 mm 6 mps 739 mmHg 33%
    12:00 +34°C° 0 mm 6 mps 739 mmHg 33%
    13:00 +34°C° 0 mm 6 mps 738 mmHg 32%
    14:00 +34°C° 0 mm 6 mps 738 mmHg 32%
    15:00 +34°C° 0 mm 6 mps 738 mmHg 32%
    16:00 +33°C° 0 mm 6 mps 738 mmHg 33%
    17:00 +33°C° 0 mm 5 mps 739 mmHg 33%
    18:00 +30°C° 0 mm 5 mps 739 mmHg 39%
    19:00 +28°C° 0 mm 4 mps 739 mmHg 45%
    20:00 +25°C° 0 mm 3 mps 739 mmHg 51%
    21:00 +25°C° 0 mm 2 mps 739 mmHg 52%
    22:00 +24°C° 0 mm 2 mps 739 mmHg 53%
    23:00 +24°C° 0 mm 2 mps 739 mmHg 54%

    Day after tomorrow, 19 August, Sunday

    Time Temperature Precipitation Wind Pressure Humidity
    00:00 +23°C° 0 mm 2 mps 739 mmHg 54%
    01:00 +23°C° 0 mm 2 mps 739 mmHg 54%
    02:00 +23°C° 0 mm 2 mps 739 mmHg 53%
    03:00 +22°C° 0 mm 3 mps 739 mmHg 53%
    04:00 +21°C° 0 mm 3 mps 739 mmHg 52%
    05:00 +21°C° 0 mm 3 mps 739 mmHg 52%
    06:00 +24°C° 0 mm 3 mps 739 mmHg 49%
    07:00 +26°C° 0 mm 3 mps 740 mmHg 46%
    08:00 +27°C° 0 mm 3 mps 740 mmHg 44%
    09:00 +29°C° 0 mm 3 mps 740 mmHg 39%
    10:00 +32°C° 0 mm 4 mps 740 mmHg 34%
    11:00 +34°C° 0 mm 4 mps 740 mmHg 30%
    12:00 +34°C° 0 mm 4 mps 740 mmHg 31%
    13:00 +34°C° 0 mm 5 mps 740 mmHg 33%
    14:00 +33°C° 0 mm 5 mps 739 mmHg 35%
    15:00 +33°C° 0 mm 5 mps 739 mmHg 37%
    16:00 +32°C° 0 mm 5 mps 739 mmHg 40%
    17:00 +32°C° 0 mm 6 mps 739 mmHg 42%
    18:00 +28°C° 0 mm 5 mps 739 mmHg 52%
    19:00 +26°C° 0 mm 4 mps 739 mmHg 61%
    20:00 +23°C° 0 mm 4 mps 739 mmHg 71%
    21:00 +22°C° 0 mm 3 mps 739 mmHg 74%
    22:00 +21°C° 0 mm 3 mps 739 mmHg 78%
    23:00 +20°C° 0 mm 3 mps 739 mmHg 82%

    20 August, Monday

    Time Temperature Precipitation Wind Pressure Humidity
    00:00 +20°C° 0 mm 2 mps 739 mmHg 81%
    01:00 +20°C° 0 mm 2 mps 739 mmHg 80%
    02:00 +19°C° 0 mm 2 mps 739 mmHg 79%
    03:00 +19°C° 0 mm 3 mps 739 mmHg 79%
    04:00 +19°C° 0 mm 3 mps 739 mmHg 79%
    05:00 +18°C° 0 mm 3 mps 739 mmHg 79%
    06:00 +20°C° 0 mm 4 mps 739 mmHg 70%
    07:00 +22°C° 0 mm 5 mps 739 mmHg 62%
    08:00 +25°C° 0 mm 5 mps 740 mmHg 54%
    09:00 +26°C° 0 mm 6 mps 740 mmHg 47%
    10:00 +28°C° 0 mm 6 mps 740 mmHg 41%
    11:00 +29°C° 0 mm 6 mps 740 mmHg 34%
    12:00 +29°C° 0 mm 6 mps 740 mmHg 34%
    13:00 +30°C° 0 mm 6 mps 740 mmHg 33%
    14:00 +30°C° 0 mm 6 mps 739 mmHg 33%
    15:00 +29°C° 0 mm 6 mps 739 mmHg 35%
    16:00 +28°C° 0 mm 6 mps 739 mmHg 37%
    17:00 +28°C° 0 mm 6 mps 739 mmHg 39%
    18:00 +26°C° 0 mm 5 mps 739 mmHg 47%
    19:00 +22°C° 0 mm 4 mps 739 mmHg 54%
    20:00 +20°C° 0 mm 3 mps 739 mmHg 62%
    21:00 +20°C° 0 mm 3 mps 739 mmHg 66%
    22:00 +19°C° 0 mm 2 mps 739 mmHg 70%
    23:00 +18°C° 0 mm 2 mps 739 mmHg 73%

    21 August, Tuesday

    Time Temperature Precipitation Wind Pressure Humidity
    00:00 +18°C° 0 mm 2 mps 739 mmHg 75%
    01:00 +18°C° 0 mm 2 mps 739 mmHg 76%
    02:00 +17°C° 0 mm 2 mps 739 mmHg 77%
    03:00 +17°C° 0 mm 2 mps 739 mmHg 78%
    04:00 +17°C° 0 mm 3 mps 739 mmHg 79%
    05:00 +16°C° 0 mm 3 mps 739 mmHg 80%
    06:00 +18°C° 0 mm 3 mps 739 mmHg 71%
    07:00 +20°C° 0 mm 3 mps 740 mmHg 63%
    08:00 +22°C° 0 mm 4 mps 740 mmHg 54%
    09:00 +25°C° 0 mm 4 mps 740 mmHg 49%
    10:00 +27°C° 0 mm 4 mps 740 mmHg 43%
    11:00 +28°C° 0 mm 5 mps 740 mmHg 37%
    12:00 +29°C° 0 mm 5 mps 740 mmHg 36%
    13:00 +30°C° 0 mm 5 mps 740 mmHg 35%
    14:00 +30°C° 0 mm 5 mps 740 mmHg 34%
    15:00 +30°C° 0 mm 5 mps 740 mmHg 36%
    16:00 +29°C° 0 mm 5 mps 740 mmHg 38%
    17:00 +29°C° 0 mm 5 mps 739 mmHg 40%
    18:00 +26°C° 0 mm 4 mps 739 mmHg 49%
    19:00 +24°C° 0 mm 3 mps 740 mmHg 59%
    20:00 +21°C° 0 mm 3 mps 740 mmHg 68%
    21:00 +20°C° 0 mm 2 mps 740 mmHg 73%
    22:00 +19°C° 0 mm 2 mps 740 mmHg 77%
    23:00 +20°C° 0 mm 1 mps 740 mmHg 81%

    22 August, Wednesday

    Time Temperature Precipitation Wind Pressure Humidity
    00:00 +19°C° 0 mm 1 mps 740 mmHg 82%
    01:00 +19°C° 0 mm 1 mps 740 mmHg 82%
    02:00 +19°C° 0 mm 1 mps 740 mmHg 82%
    03:00 +18°C° 0 mm 1 mps 740 mmHg 82%
    04:00 +17°C° 0 mm 2 mps 740 mmHg 82%
    05:00 +17°C° 0 mm 2 mps 740 mmHg 82%
    06:00 +19°C° 0 mm 2 mps 740 mmHg 73%
    07:00 +21°C° 0 mm 2 mps 740 mmHg 64%
    08:00 +24°C° 0 mm 3 mps 741 mmHg 55%
    09:00 +26°C° 0 mm 3 mps 741 mmHg 47%
    10:00 +28°C° 0 mm 4 mps 741 mmHg 39%
    11:00 +30°C° 0 mm 5 mps 741 mmHg 31%
    12:00 +30°C° 0 mm 5 mps 740 mmHg 30%
    13:00 +32°C° 0 mm 5 mps 740 mmHg 29%
    14:00 +32°C° 0 mm 6 mps 740 mmHg 29%
    15:00 +32°C° 0 mm 5 mps 740 mmHg 31%
    16:00 +30°C° 0 mm 5 mps 740 mmHg 33%
    17:00 +29°C° 0 mm 5 mps 739 mmHg 36%
    18:00 +27°C° 0 mm 4 mps 739 mmHg 45%
    19:00 +24°C° 0 mm 3 mps 739 mmHg 54%
    20:00 +21°C° 0 mm 3 mps 739 mmHg 63%
    21:00 +20°C° 0 mm 2 mps 739 mmHg 67%
    22:00 +20°C° 0 mm 2 mps 739 mmHg 71%
    23:00 +20°C° 0 mm 1 mps 739 mmHg 75%
    Show more